Location: Bron Breck
(40.6655°N, 111.8083°W)
Time: 04:53:39
(UTC+00:00)

ISS - Pass Details

Date: 07 March 2021
Orbit: 418 x 422 km, 51.6° (Epoch: 16 April)

Event Time Altitude Azimuth Distance (km) Brightness Sun altitude
Exits shadow 13:13:07 - 313° (NW) 1,957 -0.8 -8.0°
Reaches altitude 10° 13:14:17 10° 318° (NW) 1,499 -1.3 -7.8°
Maximum altitude 13:17:29 41° 30° (NNE) 622 -2.6 -7.2°
Drops below altitude 10° 13:20:41 10° 102° (ESE) 1,494 0.7 -6.6°
Sets 13:22:51 0° 110° (ESE) 2,355 1.7 -6.2°
